EW8051 Weather Reports


time (UTC)temp
F
wind
direction
speed
knots
gust
knots
rain 1hr
in
rain 24hr
in
rain mn
in
humidity
%
barometer
mb
20260508151134 50 327 6.1 10.4 0.00 0.00 0.00 75 1021.1
20260508150252 50 0 4.3 5.2 0.00 0.00 0.00 76 1021.1
20260508144645 51 0 5.2 7.8 0.00 0.00 0.00 75 1021.1
20260508144303 51 180 4.3 5.2 0.00 0.00 0.00 75 1021.0
20260508140710 51 349 8.7 11.3 0.00 0.00 0.00 74 1021.4
20260508135533 51 0 8.7 14.8 0.00 0.00 0.00 74 1021.2
20260508134326 52 25 7.0 11.3 0.00 0.00 0.00 74 1021.2
20260508133047 52 315 6.1 8.7 0.00 0.00 0.00 73 1021.1
20260508132129 53 315 4.3 7.0 0.00 0.00 0.00 72 1021.0
20260508131206 53 315 7.8 9.6 0.00 0.00 0.00 72 1020.6
20260508124557 53 315 7.0 11.3 0.00 0.00 0.00 73 1020.6
20260508123846 53 0 6.1 7.0 0.00 0.00 0.00 74 1020.5
20260508122909 53 90 6.1 8.7 0.00 0.00 0.00 73 1020.3
20260508121533 53 336 7.0 9.6 0.00 0.00 0.00 74 1020.4
20260508120559 53 0 9.6 13.0 0.00 0.00 0.00 75 1020.4
20260508115758 53 315 7.0 10.4 0.00 0.00 0.00 75 1020.4
20260508114557 54 315 7.8 11.3 0.00 0.00 0.00 74 1020.2
20260508112158 54 315 6.1 11.3 0.00 0.00 0.00 71 1020.0
20260508111309 55 315 8.7 12.2 0.00 0.00 0.00 70 1019.8
20260508110507 55 315 8.7 12.2 0.00 0.00 0.00 70 1019.7
20260508105619 56 315 9.6 13.0 0.00 0.00 0.00 70 1019.5
20260508104333 56 315 7.8 12.2 0.00 0.00 0.00 70 1019.5
20260508094557 57 315 7.0 9.6 0.00 0.00 0.00 71 1018.9
20260508091729 57 315 7.0 11.3 0.00 0.00 0.00 70 1018.7
20260508090645 58 315 7.0 9.6 0.00 0.00 0.00 70 1018.6
20260508082958 59 315 4.3 7.8 0.00 0.00 0.00 71 1017.9
20260508082155 58 315 5.2 7.0 0.00 0.00 0.00 71 1018.0
20260508074557 58 315 2.6 4.3 0.00 0.00 0.00 73 1017.3
20260508074019 58 315 4.3 6.1 0.00 0.00 0.00 73 1017.2
20260508070958 59 315 5.2 7.8 0.00 0.00 0.00 73 1016.6
20260508065757 59 315 1.7 7.0 0.00 0.00 0.00 75 1016.5
20260508064422 58 315 3.5 7.8 0.00 0.00 0.00 79 1016.5
20260508063133 58 315 6.1 8.7 0.00 0.00 0.00 78 1016.5
20260508055504 60 315 7.0 7.8 0.00 0.00 0.00 76 1015.7
20260508054019 60 315 3.5 5.2 0.00 0.00 0.00 76 1015.5
20260508051534 60 315 7.8 9.6 0.00 0.00 0.00 75 1015.2
20260508044735 62 315 2.6 4.3 0.00 0.00 0.00 72 1014.6
20260508042558 63 315 6.1 7.8 0.00 0.00 0.00 71 1014.3
20260508041533 63 315 4.3 7.0 0.00 0.00 0.00 71 1014.1
20260508040822 63 315 4.3 6.1 0.00 0.00 0.00 70 1014.1
20260508032822 63 315 0.9 1.7 0.00 0.00 0.00 70 1013.5
20260508032108 63 315 3.5 5.2 0.00 0.00 0.00 70 1013.4
20260508024306 63 315 1.7 3.5 0.00 0.00 0.00 67 1013.0
20260508022647 64 315 6.1 7.8 0.00 0.00 0.00 62 1013.1
20260508012734 63 315 2.6 3.5 0.00 0.00 0.00 68 1012.5
20260508010022 64 315 0.9 1.7 0.00 0.00 0.00 64 1012.6
20260508005046 64 315 3.5 4.3 0.00 0.00 0.00 64 1012.6
20260508000603 64 315 3.5 6.1 0.00 0.00 0.00 65 1012.3
20260507235534 64 315 5.2 7.0 0.00 0.00 0.00 65 1012.1
20260507234713 64 315 6.1 8.7 0.00 0.00 0.00 63 1012.0
20260507233536 65 315 8.7 12.2 0.00 0.00 0.00 61 1011.9
20260507233220 66 315 5.2 8.7 0.00 0.00 0.00 57 1011.5
20260507232108 66 315 0.9 3.5 0.00 0.00 0.00 56 1011.4
20260507230601 65 315 2.6 3.5 0.00 0.00 0.00 57 1011.2
20260507225554 65 315 1.7 2.6 0.00 0.00 0.00 60 1011.0
20260507224619 65 315 0.0 1.7 0.00 0.00 0.00 59 1010.8
20260507223622 65 0.0 0.0 0.00 0.00 0.00 58 1010.8
20260507222828 66 0.0 1.7 0.00 0.00 0.00 57 1010.8
20260507221555 66 0.0 0.0 0.00 0.00 0.00 56 1010.9
20260507220734 67 315 0.0 1.7 0.00 0.00 0.00 54 1010.8
20260507215623 67 0.0 0.9 0.00 0.00 0.00 53 1010.8
20260507214558 68 315 0.0 1.7 0.00 0.00 0.00 53 1010.9
20260507213534 67 315 1.7 4.3 0.00 0.00 0.00 53 1011.1
20260507212558 67 315 0.0 1.7 0.00 0.00 0.00 53 1010.8
20260507211554 67 315 1.7 2.6 0.00 0.00 0.00 54 1010.8
20260507210559 68 315 1.7 1.7 0.00 0.00 0.00 53 1010.9
20260507210022 68 315 0.9 1.7 0.00 0.00 0.00 53 1010.9
20260507205046 68 315 0.0 1.7 0.00 0.00 0.00 53 1011.0
20260507204508 68 315 0.0 1.7 0.00 0.00 0.00 53 1011.1
20260507203136 68 315 0.0 1.7 0.00 0.00 0.00 52 1011.1
20260507202023 68 315 0.9 1.7 0.00 0.00 0.00 52 1011.1
20260507201047 69 315 1.7 3.5 0.00 0.00 0.00 52 1011.2
20260507200022 68 315 0.0 1.7 0.00 0.00 0.00 52 1011.3
20260507195046 68 315 0.0 1.7 0.00 0.00 0.00 52 1011.2
20260507194023 68 0.0 0.0 0.00 0.00 0.00 51 1011.2
20260507193046 69 0.0 0.0 0.00 0.00 0.00 50 1011.1
20260507191539 70 315 0.0 1.7 0.00 0.00 0.00 49 1011.1
20260507190618 70 315 0.0 1.7 0.00 0.00 0.00 47 1011.1
20260507185535 71 315 0.9 2.6 0.00 0.00 0.00 46 1011.0
20260507184559 71 315 0.0 1.7 0.00 0.00 0.00 45 1011.1
20260507183630 72 0.0 0.0 0.00 0.00 0.00 44 1011.1
20260507182558 72 315 0.0 1.7 0.00 0.00 0.00 43 1011.1
20260507181537 73 315 0.9 1.7 0.00 0.00 0.00 40 1011.2
20260507180647 73 315 2.6 4.3 0.00 0.00 0.00 40 1011.1
20260507175713 74 315 1.7 3.5 0.00 0.00 0.00 40 1011.1
20260507174355 74 315 7.0 9.6 0.00 0.00 0.00 38 1011.5
20260507173135 75 315 3.5 8.7 0.00 0.00 0.00 37 1010.9
20260507172103 75 315 5.2 9.6 0.00 0.00 0.00 36 1011.0
20260507171112 76 315 4.3 6.1 0.00 0.00 0.00 35 1011.3
20260507170023 76 315 0.9 3.5 0.00 0.00 0.00 32 1011.5
20260507165047 77 315 0.9 4.3 0.00 0.00 0.00 31 1011.4
20260507164023 77 315 0.9 2.6 0.00 0.00 0.00 30 1010.8
20260507163134 78 315 0.9 2.6 0.00 0.00 0.00 30 1010.7
20260507162022 78 315 2.6 3.5 0.00 0.00 0.00 29 1010.6
20260507161223 78 315 1.7 4.3 0.00 0.00 0.00 28 1010.5
20260507160026 79 315 2.6 4.3 0.00 0.00 0.00 27 1010.5
20260507155107 79 315 2.6 4.3 0.00 0.00 0.00 26 1010.4
20260507154028 79 315 0.9 3.5 0.00 0.00 0.00 26 1010.5
20260507153048 80 315 0.9 2.6 0.00 0.00 0.00 26 1010.5
20260507152111 81 315 3.5 6.1 0.00 0.00 0.00 23 1010.7